"Pseudo-MPEC" for ZLB2C6D

Created 2018 Jun 18 9:19:00 UT using Find_Orb

Click here for an explanation of pseudo-MPECs

 
 Astrometry: 
     ZLB2C6D  C2018 06 12.42713 23 56 24.82 +09 16 26.0          21.1 GUNEOCPG96
     ZLB2C6D  C2018 06 12.43147 23 56 25.64 +09 16 28.7          21.4 GUNEOCPG96
     ZLB2C6D  C2018 06 12.43582 23 56 26.39 +09 16 32.0          20.7 GUNEOCPG96
     ZLB2C6D  C2018 06 12.44018 23 56 27.18 +09 16 36.3          22.1 GUNEOCPG96
     ZLB2C6D  C2018 06 12.44883 23 56 28.77 +09 16 41.8          21.1 GUNEOCPG96
     ZLB2C6D  C2018 06 12.45054 23 56 29.02 +09 16 43.8          21.4 GUNEOCPG96
     ZLB2C6D  C2018 06 12.45236 23 56 29.38 +09 16 44.9          21.9 GUNEOCPG96
     ZLB2C6D  C2018 06 12.45411 23 56 29.71 +09 16 45.9          21.6 GUNEOCPG96
     ZLB2C6D KC2018 06 13=HAstrometrykw:CxeT%?6XQ-2qSDUvotik.hF)B[DLQ8IOXW/wmJ04
     ZLB2C6D KC2018 06 13A(!.S.R._G\Nmkmt8redacted;NN6TO#see/-Zr^(:@]HNkT\P!?J04
     ZLB2C6D KC2018 06 13XHdN;8fCfWwF,TVm5(+qB%TDSyx6PT/.VM7Le#o+ZGR@!bgNEOCPJ04
     ZLB2C6D  C2018 06 14.40673 00 02 26.85 +09 40 51.5          20.4 GUNEOCPI52
     ZLB2C6D  C2018 06 14.41432 00 02 28.27 +09 40 56.2          20.9 GUNEOCPI52
     ZLB2C6D  C2018 06 14.41809 00 02 28.91 +09 40 59.1          20.7 GUNEOCPI52
     ZLB2C6D  C2018 06 14.42186 00 02 29.62 +09 41 01.9          21.2 GUNEOCPI52

Station data:
(G96) Mt. Lemmon Survey  (N32.442754 W110.788720)  US/Arizona.  Observers B.
   M. Africano, E. J. Christensen, D. C. Fuls, A. R. Gibbs, A. D. Grauer, J.
   A. Johnson, R. A. Kowalski, S. M. Larson, G. J. Leonard, R. L. Seaman, F.
   C. Shelly. 1.5-m reflector + 10K CCD.
(I52) Steward Observatory, Mt. Lemmon Station  (N32.442547 W110.788920)
   US/Arizona.  Observers B. M. Africano, E. J. Christensen, D. C. Fuls, A.
   R. Gibbs, A. D. Grauer, J. A. Johnson, R. A. Kowalski, S. M. Larson, G. J.
   Leonard, R. L. Seaman, F. C. Shelly. 1.0-m reflector + CCD.
(J04) ESA Optical Ground Station, Tenerife  (N28.300924 W16.511830)  Canary
   Islands (Spain).  Observer D. Abreu. Measurers M. Micheli, D. Koschny, E.
   Schwab, M. Busch, A. Knöfel. 1.0-m f/4.4 reflector + CCD.

Orbital elements:  ZLB2C6D
   Perihelion 2018 Sep 22.061829 +/- 178 TT =  1:29:02 (JD 2458383.561829)
Epoch 2018 Jun 14.0 TT = JDT 2458283.5   Earth MOID: 0.2252   Ma: 0.0394
M 305.98165 +/- 210                 (J2000 ecliptic)          AutoNEOCP
n   0.53984962 +/- 0.828            Peri.  223.97280 +/- 180
a   1.49378300 +/- 0.907            Node   167.51645 +/- 14
e   0.2021608 +/- 0.233             Incl.   13.86041 +/- 3.1
P   1.83/666.84d           H 18.7   G  0.15   U 12.6  
q 1.19179850 +/- 0.6    Q 1.79576750 +/- 1.61
From 15 observations 2018 June 12-14 (47.9 hr); mean residual 0".38
Residuals in arcseconds: 
180612 G96  .04+  .32+    180612 G96  .29-  .51+    180613 J04  .29+  .49-    
180612 G96  .58+  .25-    180612 G96  .18+  .24+    180614 I52  .60-  .47+    
180612 G96  .07+  .22-    180612 G96  .40+  .08-    180614 I52  .07-  .44-    
180612 G96  .12+  .80+    180613 J04  .08+  .14+    180614 I52  .77-  .33-    
180612 G96  .57+  .21-    180613 J04  .18+  .12-    180614 I52  .43-  .31-    

Ephemerides (geocentric):
Date (UTC) HH   RA              Dec         delta   r     elong  mag " sig PA
---- -- -- --  -------------   -----------  ------ ------ -----  --- ---- ---
2018 06 18 09  00 14 42.228   +10 28 22.06  1.0974 1.3514  79.4 21.4 73.6  56
2018 06 18 10  00 14 50.026   +10 28 51.27  1.0971 1.3513  79.4 21.4 74.9  56
2018 06 18 11  00 14 57.826   +10 29 20.46  1.0968 1.3512  79.4 21.4 76.1  56
2018 06 18 12  00 15 05.627   +10 29 49.63  1.0965 1.3511  79.4 21.4 77.4  56
2018 06 18 13  00 15 13.430   +10 30 18.79  1.0962 1.3510  79.4 21.4 78.7  56
2018 06 18 14  00 15 21.234   +10 30 47.93  1.0958 1.3508  79.4 21.4 80.0  56
2018 06 18 15  00 15 29.040   +10 31 17.06  1.0955 1.3507  79.4 21.4 81.3  56
2018 06 18 16  00 15 36.847   +10 31 46.17  1.0952 1.3506  79.4 21.4 82.6  57
2018 06 18 17  00 15 44.656   +10 32 15.27  1.0949 1.3505  79.5 21.4 83.9  57
2018 06 18 18  00 15 52.467   +10 32 44.35  1.0946 1.3504  79.5 21.4 85.3  57
2018 06 18 19  00 16 00.279   +10 33 13.41  1.0943 1.3503  79.5 21.4 86.6  57
2018 06 18 20  00 16 08.093   +10 33 42.46  1.0940 1.3502  79.5 21.4 88.0  57
2018 06 18 21  00 16 15.908   +10 34 11.50  1.0936 1.3500  79.5 21.4 89.3  57
2018 06 18 22  00 16 23.725   +10 34 40.52  1.0933 1.3499  79.5 21.4 90.7  57
2018 06 18 23  00 16 31.543   +10 35 09.52  1.0930 1.3498  79.5 21.4 92.1  57
2018 06 19 00  00 16 39.363   +10 35 38.51  1.0927 1.3497  79.5 21.3 93.5  57
2018 06 19 01  00 16 47.185   +10 36 07.48  1.0924 1.3496  79.5 21.3 95.0  57
2018 06 19 02  00 16 55.008   +10 36 36.44  1.0921 1.3495  79.5 21.3 96.4  57
2018 06 19 03  00 17 02.833   +10 37 05.38  1.0918 1.3493  79.5 21.3 97.8  57
2018 06 19 04  00 17 10.659   +10 37 34.31  1.0914 1.3492  79.5 21.3 99.3  57
2018 06 19 05  00 17 18.487   +10 38 03.22  1.0911 1.3491  79.5 21.3  101  57
2018 06 19 06  00 17 26.316   +10 38 32.12  1.0908 1.3490  79.5 21.3  102  57
2018 06 19 07  00 17 34.147   +10 39 01.00  1.0905 1.3489  79.5 21.3  104  57
2018 06 19 08  00 17 41.979   +10 39 29.86  1.0902 1.3488  79.6 21.3  105  57
2018 06 19 09  00 17 49.814   +10 39 58.71  1.0899 1.3487  79.6 21.3  107  57
2018 06 19 10  00 17 57.649   +10 40 27.54  1.0896 1.3485  79.6 21.3  108  57
2018 06 19 11  00 18 05.486   +10 40 56.36  1.0892 1.3484  79.6 21.3  110  57
2018 06 19 12  00 18 13.325   +10 41 25.16  1.0889 1.3483  79.6 21.3  111  57
2018 06 19 13  00 18 21.166   +10 41 53.94  1.0886 1.3482  79.6 21.3  113  57
2018 06 19 14  00 18 29.008   +10 42 22.71  1.0883 1.3481  79.6 21.3  115  58
2018 06 19 15  00 18 36.851   +10 42 51.46  1.0880 1.3480  79.6 21.3  116  58
2018 06 19 16  00 18 44.696   +10 43 20.20  1.0877 1.3479  79.6 21.3  118  58
2018 06 19 17  00 18 52.543   +10 43 48.92  1.0874 1.3477  79.6 21.3  119  58
2018 06 19 18  00 19 00.391   +10 44 17.63  1.0871 1.3476  79.6 21.3  121  58
2018 06 19 19  00 19 08.241   +10 44 46.32  1.0867 1.3475  79.6 21.3  123  58
2018 06 19 20  00 19 16.093   +10 45 14.99  1.0864 1.3474  79.6 21.3  124  58
2018 06 19 21  00 19 23.946   +10 45 43.65  1.0861 1.3473  79.6 21.3  126  58
2018 06 19 22  00 19 31.800   +10 46 12.29  1.0858 1.3472  79.6 21.3  128  58
2018 06 19 23  00 19 39.657   +10 46 40.92  1.0855 1.3470  79.7 21.3  129  58
2018 06 20 00  00 19 47.514   +10 47 09.53  1.0852 1.3469  79.7 21.3  131  58
2018 06 20 01  00 19 55.374   +10 47 38.12  1.0849 1.3468  79.7 21.3  133  58
2018 06 20 02  00 20 03.235   +10 48 06.70  1.0846 1.3467  79.7 21.3  134  58
2018 06 20 03  00 20 11.097   +10 48 35.26  1.0842 1.3466  79.7 21.3  136  58
2018 06 20 04  00 20 18.962   +10 49 03.80  1.0839 1.3465  79.7 21.3  138  58
2018 06 20 05  00 20 26.827   +10 49 32.33  1.0836 1.3464  79.7 21.3  140  58
2018 06 20 06  00 20 34.695   +10 50 00.84  1.0833 1.3462  79.7 21.3  141  58
2018 06 20 07  00 20 42.564   +10 50 29.34  1.0830 1.3461  79.7 21.3  143  58
2018 06 20 08  00 20 50.434   +10 50 57.82  1.0827 1.3460  79.7 21.3  145  58